Location: Miss�
(46.9484°N, 0.1922°W)
Time: 19:46:04
(UTC+00:00)

USA 186 - Pass Details

Date: 02 March 2021
Orbit: 261 x 430 km, 96.9° (Epoch: 11 April)

Event Time Altitude Azimuth Distance (km) Brightness Sun altitude
Exits shadow 19:34:58 19° 350° (N) 776 3.3 -19.0°
Drops below altitude 10° 19:35:50 10° 349° (N) 1,157 4.2 -19.1°
Sets 19:37:45 0° 349° (N) 2,014 5.5 -19.5°
